Home   Weather   Crailsheim   Past weeks

Flag for Germany Past Weather in Crailsheim, Baden-Württemberg, Germany — Yesterday and Last 2 Weeks

Now
52 °F

Fog.


Feels Like: 51 °F
Forecast: 54 / 72 °F
Wind: 5 mph from South

Location: Niederstetten

Current Time: Sep 28, 2016 at 7:24:36 AM

Latest Report: Sep 28, 2016 at 6:20 AM


Visibility: 3 mi

Pressure: 30.36 "Hg

Humidity: 100%

Dew Point: 52 °F

Location of CrailsheimLocation

Past Weather in Crailsheim — Graph

°F

Crailsheim Temperature Yesterday

Maximum temperature yesterday: 68 °F (at 3:20 PM)
Minimum temperature yesterday: 52 °F (at 5:20 AM)
Average temperature yesterday: 58 °F

High & Low Weather Summary for the Past Weeks

 TemperatureHumidityPressure
High86 °F (Sep 13, 2:20 PM)100% (Sep 18, 7:20 PM)30.39 "Hg (Sep 18, 7:20 PM)
Low43 °F (Sep 22, 5:20 AM)31% (Sep 13, 2:20 PM)29.86 "Hg (Sep 15, 5:20 AM)
Average60 °F75%30.09 "Hg
* Reported Sep 13 5:20 AM — Sep 28 5:20 AM, Crailsheim, Weather by CustomWeather, © 2016

Note: Actual official high and low records may vary slightly from our data, if they occured in-between our weather recording intervals... More about our weather records

Advertising

Crailsheim Weather History for the Previous 24 Hours

Scroll right to see more
 ConditionsComfort  
Time TempWeatherWind HumidityBarometerVisibility
5:20 AM
Wed, Sep 28
52 °FFog.3 mph100%30.36 "Hg3 mi
4:20 AM54 °FFog.5 mph94%30.36 "Hg3 mi
3:20 AM54 °FFog.2 mph100%30.36 "Hg3 mi
2:20 AM54 °FFog.3 mph100%30.36 "Hg2 mi
1:20 AM54 °FCool.1 mph100%30.39 "Hg4 mi
12:20 AM54 °FCool.2 mph100%30.39 "Hg5 mi
11:20 PM
Tue, Sep 27
54 °FCool.1 mph100%30.36 "Hg5 mi
10:20 PM55 °FPassing clouds.1 mph94%30.36 "HgN/A
9:20 PM55 °FPassing clouds.2 mph94%30.36 "HgN/A
8:20 PM59 °FPassing clouds.2 mph88%30.36 "HgN/A
7:20 PM61 °FPassing clouds.1 mph83%30.33 "HgN/A
6:20 PM66 °FMild.2 mph68%30.33 "HgN/A
5:20 PM68 °FPassing clouds.2 mph60%30.33 "HgN/A
4:20 PM66 °FPassing clouds.3 mph64%30.33 "HgN/A
3:20 PM68 °FPassing clouds.6 mph60%30.33 "HgN/A
2:20 PM66 °FPassing clouds.2 mph64%30.33 "HgN/A
1:20 PM64 °FPassing clouds.3 mph68%30.33 "HgN/A
12:20 PM61 °FScattered clouds.2 mph77%30.33 "HgN/A
11:48 AM57 °FScattered clouds.3 mph88%30.33 "Hg5 mi
11:20 AM57 °FFog.2 mph94%30.33 "Hg3 mi
10:49 AM55 °FFog.2 mph100%30.33 "Hg2 mi
10:20 AM55 °FFog.3 mph94%30.30 "Hg1 mi
9:20 AM52 °FFog.3 mph100%30.30 "Hg0 mi
8:20 AM52 °FFog.2 mph94%30.27 "Hg0 mi
7:20 AM52 °FScattered clouds.1 mph100%30.24 "Hg1 mi
Weather by CustomWeather, © 2016

See weather overviewHow to use our weather pages